{"data":{"norad_id":62123,"epoch":"2026-09-18T21:18:26.074656Z","epoch_age_seconds":321592,"freshness":"STALE","line1":"1 62123U 24222K   26261.88780179  .00017958  00000+0  66029-3 0  9996","line2":"2 62123  43.0022 125.3125 0000901 261.3826  98.6923 15.27591011102297","mean_motion":15.27591011,"eccentricity":9.01e-5,"inclination_deg":43.0022,"raan_deg":125.3125,"arg_perigee_deg":261.3826,"mean_anomaly_deg":98.6923,"bstar":0.00066029,"rev_number":10229,"period_min":94.266069231275,"perigee_km":482.39793544592,"apogee_km":483.63431523911,"semimajor_km":6861.1531253425,"source":"CELESTRAK","updated_at":"2026-09-22T09:00:49.525472Z"}}